TimeEST,TemperatureF,Dew PointF,Humidity,Sea Level PressureIn,VisibilityMPH,Wind Direction,Wind SpeedMPH,Gust SpeedMPH,PrecipitationIn,Events,Conditions,WindDirDegrees,DateUTC
12:54 AM,48.0,37.0,66,30.01,10.0,SSW,4.6,-,N/A,,Scattered Clouds,200,2012-12-16 05:54:00
1:54 AM,48.0,37.9,68,30.01,10.0,South,9.2,-,N/A,,Overcast,170,2012-12-16 06:54:00
2:54 AM,48.0,39.9,74,30.01,10.0,Calm,Calm,-,0.00,Rain,Light Rain,0,2012-12-16 07:54:00
3:54 AM,46.9,39.9,77,30.00,10.0,Calm,Calm,-,0.00,,Overcast,0,2012-12-16 08:54:00
4:54 AM,46.0,43.0,89,29.99,8.0,Calm,Calm,-,0.04,Rain,Light Rain,0,2012-12-16 09:54:00
5:54 AM,45.0,43.0,93,30.00,8.0,Calm,Calm,-,0.01,,Partly Cloudy,0,2012-12-16 10:54:00
6:54 AM,44.1,42.1,93,30.00,8.0,ESE,4.6,-,N/A,,Mostly Cloudy,120,2012-12-16 11:54:00
7:44 AM,44.6,42.8,93,30.04,7.0,Calm,Calm,-,N/A,,Overcast,0,2012-12-16 12:44:00
7:54 AM,44.6,42.8,93,30.04,7.0,NW,6.9,-,N/A,,Overcast,320,2012-12-16 12:54:00
8:05 AM,44.6,42.8,93,30.04,7.0,NNW,3.5,-,N/A,,Overcast,340,2012-12-16 13:05:00
8:54 AM,46.9,45.0,93,30.02,8.0,Calm,Calm,-,N/A,,Mostly Cloudy,0,2012-12-16 13:54:00
9:54 AM,48.0,45.0,89,30.02,10.0,Calm,Calm,-,N/A,,Overcast,0,2012-12-16 14:54:00
10:16 AM,48.2,44.6,87,30.05,9.0,Calm,Calm,-,0.00,Rain,Light Rain,0,2012-12-16 15:16:00
10:54 AM,48.0,46.9,96,30.05,3.0,Calm,Calm,-,0.03,Rain,Light Rain,0,2012-12-16 15:54:00
11:07 AM,48.2,48.2,100,30.05,2.5,Calm,Calm,-,0.03,Rain,Rain,0,2012-12-16 16:07:00
11:54 AM,51.1,48.9,92,30.01,2.5,Calm,Calm,-,0.08,Rain,Light Rain,0,2012-12-16 16:54:00
11:56 AM,51.8,48.2,88,30.02,2.5,Calm,Calm,-,0.00,Rain,Light Rain,0,2012-12-16 16:56:00
12:54 PM,52.0,51.1,97,29.96,2.0,SE,3.5,-,0.00,,Overcast,140,2012-12-16 17:54:00
1:16 PM,51.8,51.8,100,29.97,2.0,South,4.6,-,N/A,,Overcast,180,2012-12-16 18:16:00
1:26 PM,51.8,50.0,94,29.97,2.0,SSE,5.8,-,N/A,,Overcast,160,2012-12-16 18:26:00
1:54 PM,52.0,51.1,97,29.93,2.0,SE,3.5,-,0.00,,Overcast,130,2012-12-16 18:54:00
2:01 PM,53.6,51.8,94,29.95,10.0,Calm,Calm,-,N/A,,Overcast,0,2012-12-16 19:01:00
2:47 PM,53.6,51.8,94,29.97,7.0,NE,3.5,-,0.01,Rain,Light Rain,40,2012-12-16 19:47:00
2:54 PM,53.1,51.1,93,29.95,7.0,Calm,Calm,-,0.01,Rain,Light Rain,0,2012-12-16 19:54:00
3:54 PM,53.1,52.0,96,29.93,2.5,Calm,Calm,-,0.04,Rain,Light Rain,0,2012-12-16 20:54:00
4:06 PM,53.6,51.8,94,29.95,3.0,Calm,Calm,-,0.01,Rain,Light Rain,0,2012-12-16 21:06:00
4:14 PM,53.6,51.8,94,29.96,2.0,Calm,Calm,-,0.02,Rain,Light Rain,0,2012-12-16 21:14:00
4:54 PM,53.1,52.0,96,29.94,2.0,Calm,Calm,-,0.05,Rain,Light Rain,0,2012-12-16 21:54:00
4:58 PM,51.8,51.8,100,29.95,1.8,Calm,Calm,-,0.00,Rain,Light Rain,0,2012-12-16 21:58:00
5:01 PM,51.8,51.8,100,29.95,0.8,Calm,Calm,-,0.00,Rain,Light Rain,0,2012-12-16 22:01:00
5:08 PM,51.8,51.8,100,29.96,2.0,Calm,Calm,-,0.01,Rain,Light Rain,0,2012-12-16 22:08:00
5:54 PM,52.0,51.1,97,29.94,2.0,Calm,Calm,-,0.04,Rain,Light Rain,0,2012-12-16 22:54:00
6:01 PM,51.8,51.8,100,29.95,2.0,Calm,Calm,-,0.00,Rain,Light Rain,0,2012-12-16 23:01:00
6:20 PM,51.8,51.8,100,29.96,1.2,Calm,Calm,-,0.02,Rain,Light Rain,0,2012-12-16 23:20:00
6:32 PM,51.8,51.8,100,29.96,0.8,Calm,Calm,-,0.03,Rain,Rain,0,2012-12-16 23:32:00
6:41 PM,51.8,51.8,100,29.96,0.8,Calm,Calm,-,0.04,Rain,Light Rain,0,2012-12-16 23:41:00
6:54 PM,51.1,51.1,100,29.95,1.0,Calm,Calm,-,0.05,Rain,Light Rain,0,2012-12-16 23:54:00
7:01 PM,51.8,51.8,100,29.95,0.8,Calm,Calm,-,0.01,Rain,Light Rain,0,2012-12-17 00:01:00
7:08 PM,51.8,51.8,100,29.95,1.0,Calm,Calm,-,0.01,Rain,Light Rain,0,2012-12-17 00:08:00
7:16 PM,51.8,51.8,100,29.94,0.8,Calm,Calm,-,0.02,Rain,Rain,0,2012-12-17 00:16:00
7:54 PM,51.1,51.1,100,29.95,0.8,Calm,Calm,-,0.06,Rain,Light Rain,0,2012-12-17 00:54:00
7:58 PM,51.8,51.8,100,29.96,1.8,Calm,Calm,-,0.00,Rain,Light Rain,0,2012-12-17 00:58:00
8:07 PM,51.8,50.0,94,29.96,0.8,Calm,Calm,-,0.01,Rain,Light Rain,0,2012-12-17 01:07:00
8:15 PM,51.8,50.0,94,29.95,0.8,Calm,Calm,-,0.02,Rain,Rain,0,2012-12-17 01:15:00
8:34 PM,51.8,50.0,94,29.96,1.2,Calm,Calm,-,0.04,Rain,Light Rain,0,2012-12-17 01:34:00
8:45 PM,50.0,50.0,100,29.96,0.8,Calm,Calm,-,0.05,Rain,Light Rain,0,2012-12-17 01:45:00
8:54 PM,51.1,50.0,96,29.94,1.0,Calm,Calm,-,0.06,Rain,Light Rain,0,2012-12-17 01:54:00
9:16 PM,51.8,50.0,94,29.96,2.0,Calm,Calm,-,0.03,Rain,Light Rain,0,2012-12-17 02:16:00
9:25 PM,51.8,50.0,94,29.95,1.2,Calm,Calm,-,0.04,Rain,Rain,0,2012-12-17 02:25:00
9:47 PM,51.8,50.0,94,29.96,2.0,Calm,Calm,-,0.07,Rain,Light Rain,0,2012-12-17 02:47:00
9:54 PM,51.1,51.1,100,29.95,3.0,Calm,Calm,-,0.07,Rain,Light Rain,0,2012-12-17 02:54:00
10:14 PM,51.8,50.0,94,29.97,1.8,Calm,Calm,-,0.03,Rain,Rain,0,2012-12-17 03:14:00
10:26 PM,51.8,50.0,94,29.96,1.2,Calm,Calm,-,0.04,Rain,Light Rain,0,2012-12-17 03:26:00
10:36 PM,51.8,50.0,94,29.96,2.0,Calm,Calm,-,0.05,Rain,Light Rain,0,2012-12-17 03:36:00
10:43 PM,51.8,50.0,94,29.96,1.5,SSE,3.5,-,0.06,Rain,Light Rain,150,2012-12-17 03:43:00
10:49 PM,51.8,50.0,94,29.96,3.0,SE,3.5,-,0.06,Rain,Light Rain,140,2012-12-17 03:49:00
10:54 PM,51.1,50.0,96,29.94,4.0,Calm,Calm,-,0.06,Rain,Light Rain,0,2012-12-17 03:54:00
11:06 PM,51.8,51.8,100,29.95,4.0,Calm,Calm,-,0.01,Rain,Light Rain,0,2012-12-17 04:06:00
11:18 PM,51.8,51.8,100,29.94,5.0,Calm,Calm,-,0.02,Rain,Light Rain,0,2012-12-17 04:18:00
11:35 PM,50.0,50.0,100,29.93,1.8,South,4.6,-,0.04,Rain,Light Rain,170,2012-12-17 04:35:00
11:37 PM,50.0,50.0,100,29.93,1.2,South,4.6,-,0.04,Rain,Light Rain,170,2012-12-17 04:37:00
11:47 PM,50.0,50.0,100,29.92,0.8,South,4.6,-,0.04,Rain,Light Rain,180,2012-12-17 04:47:00
11:54 PM,50.0,50.0,100,29.88,0.5,SSE,6.9,-,0.04,Fog-Rain,Light Rain,150,2012-12-17 04:54:00